CAPE
6 6 9 6 11 26 14 8 0 0 0 0 0 0 1 3 0 0 4 9 0 2 32 56 59 53 34 4 1 11 23 33 32
4 7 6 5 15 15 20 0 0 0 0 0 0 0 0 7 6 1 5 2 12 13 12 21 16 2 2 2 11 37 29 28 24
8 13 7 6 20 51 26 1 0 0 0 0 0 0 6 5 1 9 19 24 12 20 16 9 4 4 3 13 43 33 28 25 15
8 14 8 5 47 55 24 6 0 0 0 0 0 4 5 8 5 1 3 35 22 17 8 2 3 8 40 54 36 20 16 14 7
11 6 15 7 31 24 8 0 0 0 0 0 1 3 6 4 5 7 0 46 33 0 2 34 46 41 37 21 17 21 12 3 22
2 9 14 7 2 11 1 0 0 0 0 0 2 7 6 0 1 3 23 35 37 14 37 35 42 37 31 21 20 18 3 11 7
0 1 7 5 4 4 5 0 0 0 0 0 6 9 1 0 0 0 23 31 34 22 36 20 31 19 22 16 20 9 5 4 10
0 1 16 4 3 1 0 0 0 0 0 0 12 18 8 0 0 0 6 17 30 46 30 14 10 5 3 11 7 2 6 13 34
0 0 3 3 4 0 0 0 0 0 0 0 12 9 17 0 4 1 0 21 32 32 9 2 4 7 12 6 10 15 13 32 21
0 0 1 1 0 0 0 0 0 0 0 10 13 14 16 8 6 7 19 21 29 20 2 2 7 9 12 9 17 36 22 14 31
0 0 0 0 0 0 0 0 0 0 3 8 10 10 3 1 8 9 23 24 13 12 4 7 7 11 14 38 26 13 48 28 13
0 0 0 0 3 0 0 0 0 0 0 1 4 0 0 0 0 10 19 25 13 9 5 5 11 26 35 22 4 36 11 12 6
0 0 0 0 0 0 0 0 0 0 0 0 3 0 0 0 1 2 8 8 9 2 0 0 10 33 23 23 35 18 4 0 6
0 0 0 0 0 0 0 0 0 0 0 0 0 0 0 0 0 0 2 0 1 0 0 20 21 24 19 30 26 11 5 4 3
0 0 0 0 0 0 0 0 0 0 0 0 0 0 0 0 0 0 0 0 0 0 0 0 2 2 5 30 33 19 6 2 1
0 0 0 0 0 0 0 0 0 0 0 0 0 0 0 0 0 0 0 0 0 0 0 0 0 0 0 34 28 10 3 4 0
0 0 0 0 0 0 0 0 0 0 0 0 0 0 0 0 0 0 0 0 0 0 0 0 0 0 0 14 13 2 4 2 0
0 0 0 0 0 0 0 0 0 0 0 0 0 0 0 0 0 0 0 0 0 0 0 0 0 0 0 0 0 0 0 2 0
0 0 0 0 0 0 0 0 0 0 0 0 0 0 0 0 0 0 0 0 0 0 0 0 0 0 0 0 0 0 0 2 1
0 0 0 0 0 0 0 0 0 0 0 0 0 0 0 0 0 0 0 0 0 0 0 0 0 0 0 0 0 0 0 0 3
CIN
-0 -0 -0 -3 -1 -2 -1 -3 -0 -0 -0 -0 -0 -0 -15 -13 -0 -0 -5 -2 -0 -0 -0 -0 -0 -0 -0 -0 -0 -1 -1 -2 -4
-0 -1 -0 -0 -3 -0 -1 -0 -0 -0 -0 -0 -0 -0 -2 -15 -10 -1 -2 -1 -2 -0 -0 -1 -0 -0 -0 -1 -0 -0 -0 -0 -0
-0 -1 -0 -0 -2 -3 -2 -0 -0 -0 -0 -0 -0 -16 -19 -14 -1 -10 -7 -7 -0 -0 -0 -1 -0 -0 -0 -1 -0 -0 -0 -0 -0
-0 -0 -0 -0 -1 -0 -4 -1 -0 -0 -0 -0 -0 -22 -12 -14 -12 -3 -1 -4 -0 -0 -1 -0 -0 -0 -0 -0 -1 -0 -0 -0 -0
-1 -0 -1 -1 -5 -10 -2 -0 -0 -0 -0 -0 -5 -14 -12 -16 -10 -2 -0 -1 -0 -0 -0 -0 -0 -0 -0 -0 -0 -3 -2 -1 -1
-5 -4 -3 -3 -2 -2 -0 -0 -0 -0 -0 -0 -6 -12 -16 -0 -9 -8 -1 -1 -0 -1 -0 -0 -0 -0 -0 -1 -1 -2 -1 -0 -1
-0 -1 -2 -12 -6 -3 -0 -0 -0 -0 -0 -0 -11 -18 -6 -0 -0 -0 -4 -0 -0 -0 -0 -1 -2 -0 -0 -3 -3 -1 -1 -1 -2
-0 -3 -10 -11 -3 -0 -0 -0 -0 -0 -0 -0 -22 -25 -36 -0 -0 -0 -4 -1 -0 -0 -0 -1 -1 -0 -0 -2 -1 -0 -0 -0 -0
-0 -0 -8 -7 -4 -0 -0 -0 -0 -0 -0 -0 -23 -21 -33 -0 -10 -2 -0 -1 -0 -0 -5 -0 -0 -0 -0 -1 -0 -2 -2 -0 -2
-0 -0 -3 -4 -0 -0 -0 -0 -0 -0 -0 -39 -27 -29 -35 -22 -10 -5 -3 -2 -1 -2 -1 -0 -0 -0 -0 -0 -1 -0 -2 -0 -0
-0 -0 -0 -0 -0 -0 -0 -0 -0 -0 -24 -39 -44 -46 -44 -9 -18 -11 -6 -4 -1 -5 -0 -0 -0 -0 -1 -0 -1 -0 -0 -0 -0
-0 -0 -0 -0 -21 -0 -0 -0 -0 -0 -0 -35 -40 -0 -0 -0 -3 -24 -10 -3 -3 -9 -0 -0 -1 -0 -0 -0 -0 -0 -1 -1 -1
-0 -0 -0 -0 -0 -0 -0 -0 -0 -0 -0 -0 -35 -31 -0 -0 -13 -41 -17 -11 -5 -11 -0 -0 -0 -0 -0 -0 -0 -0 -0 -0 -0
-0 -0 -0 -0 -0 -0 -0 -0 -0 -0 -0 -0 -0 -0 -0 -0 -0 -0 -32 -0 -12 -0 -0 -4 -2 -1 -0 -0 -0 -0 -0 -0 -0
-0 -0 -0 -0 -0 -0 -0 -0 -0 -0 -0 -0 -0 -0 -0 -0 -0 -0 -0 -0 -0 -12 -9 -8 -32 -1 -3 -0 -0 -0 -0 -0 -0
-0 -0 -0 -0 -0 -0 -0 -0 -0 -0 -0 -0 -0 -0 -0 -0 -0 -0 -0 -0 -0 -0 -0 -0 -27 -0 -0 -1 -1 -0 -0 -0 -0
-0 -0 -0 -0 -0 -0 -0 -0 -0 -0 -0 -0 -0 -0 -0 -0 -0 -0 -0 -0 -0 -0 -0 -0 -0 -0 -0 -2 -1 -0 -0 -0 -0
-0 -0 -0 -0 -0 -0 -0 -0 -0 -0 -0 -0 -0 -0 -0 -0 -0 -0 -0 -0 -0 -0 -0 -0 -0 -0 -0 -0 -0 -0 -0 -0 -0
-0 -0 -0 -0 -0 -0 -0 -0 -0 -0 -0 -0 -0 -0 -0 -0 -0 -0 -0 -0 -0 -0 -0 -0 -0 -0 -0 -0 -0 -0 -0 -0 -0
-0 -0 -0 -0 -0 -0 -0 -0 -0 -0 -0 -0 -0 -0 -0 -0 -0 -0 -0 -0 -0 -0 -0 -0 -0 -0 -0 -0 -0 -0 -0 -0 -0
Wind_Speed
5 4 4 5 5 8 9 10 12 14 16 17 17 16 15 20 19 19 18 19 20 20 21 23 24 25 25 25 25 26 27 27 28
6 4 5 5 6 8 11 11 12 12 14 14 14 12 16 19 19 19 19 19 21 22 23 22 23 24 24 24 25 26 26 26 26
7 6 7 6 5 8 10 10 11 11 13 14 13 13 18 18 20 19 19 21 22 23 24 24 25 25 25 26 27 27 26 26 27
6 6 7 7 6 7 8 9 9 10 12 12 12 12 16 16 18 17 18 19 23 24 23 26 26 27 28 28 27 27 26 26 27
4 5 5 5 5 6 6 7 8 9 9 10 11 15 15 16 16 16 18 19 24 24 26 26 27 28 28 28 27 27 27 27 27
2 3 3 5 4 4 4 5 6 6 7 9 10 11 13 14 13 13 15 20 22 23 24 27 27 27 27 26 26 26 26 27 27
2 2 1 3 4 4 4 4 4 6 6 7 8 9 11 11 10 11 15 17 19 21 24 25 25 25 25 25 26 26 26 27 26
2 1 1 1 2 3 4 3 2 4 5 6 6 7 8 8 6 11 13 18 18 22 23 23 23 23 24 24 24 24 25 25 25
2 2 1 1 2 2 1 1 4 6 6 6 4 4 5 4 6 10 14 18 20 21 21 22 22 22 22 23 24 24 24 24 25
4 4 3 2 2 1 1 3 9 7 6 1 3 3 3 2 2 4 11 16 19 19 20 22 21 21 22 23 23 23 23 22 23
5 6 5 3 2 3 3 7 5 6 1 5 4 5 4 4 4 4 7 15 16 17 18 19 20 20 21 21 22 22 22 23 23
7 7 7 7 6 4 6 7 6 3 4 4 7 8 6 5 5 4 4 10 14 14 16 17 18 19 20 19 20 20 20 21 21
10 9 10 9 8 7 8 7 7 5 6 6 9 9 9 7 5 4 3 5 10 12 14 15 16 18 17 17 17 18 18 19 19
11 10 10 9 8 9 9 9 8 8 7 8 9 9 9 11 8 5 3 3 6 9 11 12 14 16 16 15 16 16 17 18 18
11 12 12 12 11 11 11 10 9 9 9 8 9 10 10 10 9 7 5 3 4 7 7 10 12 12 13 13 14 15 15 16 17
13 14 14 14 14 14 14 13 12 12 11 12 10 11 12 11 11 8 4 2 3 3 6 9 10 11 11 10 12 13 15 16 16
14 14 15 16 17 16 16 16 16 17 16 18 15 16 18 16 13 11 7 4 5 3 5 6 8 10 10 9 10 12 13 15 16
14 15 17 18 19 19 19 19 19 19 21 17 19 18 20 16 17 14 9 7 7 4 3 4 5 7 8 8 8 10 11 13 15
16 16 18 20 21 22 21 21 22 22 22 22 23 19 14 18 18 19 15 12 9 7 6 3 5 6 6 7 9 8 9 10 12
17 18 20 22 25 24 22 23 23 23 24 24 23 21 18 16 17 19 17 18 13 9 8 6 4 5 7 8 8 8 8 10 11
Wind_Direction
25 12 18 40 38 53 42 41 50 57 66 72 60 40 31 63 56 56 48 49 52 55 57 57 56 56 55 52 50 50 51 51 47
52 28 54 49 55 62 62 53 53 52 60 59 44 12 53 66 58 58 56 58 58 64 72 65 64 57 53 51 55 57 53 49 45
60 63 69 58 46 70 66 53 53 54 62 58 33 29 67 66 64 58 56 65 67 68 72 68 69 66 67 66 65 58 52 47 45
64 69 78 73 53 65 61 51 52 57 68 46 19 43 63 59 67 61 67 63 74 74 67 77 76 75 72 67 61 56 52 46 45
50 58 71 72 51 49 42 47 50 60 53 38 30 63 60 64 65 61 69 65 81 70 78 76 72 74 71 66 61 57 56 54 53
28 19 60 73 41 16 27 34 44 50 45 34 34 54 60 61 61 62 63 68 77 72 77 75 72 69 68 64 61 61 58 58 56
305 323 13 59 34 31 20 20 39 55 39 19 36 50 62 59 62 59 78 74 69 75 78 74 71 70 67 62 64 65 63 60 58
307 320 351 357 334 344 354 348 18 41 25 15 26 52 50 52 48 65 74 87 75 84 76 73 72 70 69 68 69 63 63 62 58
242 247 297 352 337 324 353 1 298 303 315 321 22 30 31 40 56 67 76 89 87 85 76 75 71 69 67 69 68 66 63 57 54
244 239 237 250 296 264 260 296 278 295 312 310 17 14 335 352 25 32 73 87 93 82 77 76 71 69 70 71 70 63 57 55 53
241 234 233 218 218 228 253 282 276 296 309 282 286 285 303 282 280 295 65 95 90 82 75 71 70 73 72 68 63 64 58 52 48
245 230 230 228 238 236 263 266 271 272 266 278 272 266 274 275 277 302 41 84 86 78 76 68 68 76 69 63 65 62 51 47 43
239 238 239 239 238 237 247 244 254 252 260 262 262 262 262 268 278 297 24 60 74 74 73 68 72 75 64 56 57 54 45 40 40
241 233 234 238 231 236 235 240 237 242 250 249 255 264 268 267 275 286 309 46 63 60 62 59 59 67 63 63 58 50 40 35 34
239 239 238 241 240 240 237 231 230 228 234 245 257 262 270 276 276 280 286 315 37 66 49 46 59 59 58 61 54 42 35 28 24
235 242 242 243 240 240 234 235 225 232 227 243 255 270 273 274 276 284 291 33 12 12 48 52 46 44 51 58 52 38 32 36 25
234 233 236 240 242 240 233 232 239 242 235 244 252 260 268 272 278 277 281 284 298 334 6 28 33 29 35 37 38 29 27 26 21
230 232 236 238 240 239 239 236 237 237 243 235 258 261 266 262 271 272 272 269 285 311 350 23 14 17 20 21 15 18 26 18 15
239 232 232 239 241 241 241 239 240 241 241 242 258 268 270 266 268 271 271 271 276 295 314 329 342 355 0 0 352 3 17 12 10
236 234 234 237 241 242 239 239 240 243 244 244 254 262 268 274 277 271 269 274 277 285 305 310 317 329 336 338 339 345 354 356 357